Yakutat, AK

12:49 PM AKST on December 13, 2017 (GMT -0900)
Yakutat

Weather History for PAYA - October, 2012

Change the Weather History Date:

Friday, October 12, 2012

  Actual Average Record
Temperature  
Mean Temperature 38 °F 43 °F  
Max Temperature 49 °F 49 °F 61 °F (1962)
Min Temperature 27 °F 36 °F 15 °F (1997)
Degree Days  
Heating Degree Days 27 22  
Month to date heating degree days 244 252  
Moisture  
Dew Point 32 °F    
Average Humidity 0    
Maximum Humidity 0    
Minimum Humidity 0    
Precipitation  
Precipitation 0.17 in 0.77 in 4.03 in (1981)
Month to date precipitation 2.26 9.57  
Year to date precipitation 88.34 111.98  
Snow  
Snow 0.00 in 0.00 in 6.00 in (1924)
Month to date snowfall 0.0 0.2  
Since 1 July snowfall T 0.2  
Snow Depth 0.00 in    
Sea Level Pressure  
Sea Level Pressure 29.25 in    
Wind  
Wind Speed 2 mph (East)    
Max Wind Speed 8 mph    
Max Gust Speed 13 mph    
Visibility 10 miles    
Events Rain    
T = Trace of Precipitation, MM = Missing Value Source: NWS Daily Summary

Daily Weather History Graph

Daily Weather History Graph

Search for Another Location

Airport or City:

Trip Planner

Search our weather history database for the weather conditions in past years. The results will help you decide how hot, cold, wet, or windy it might be!

Date:

Astronomy

Oct. 12, 2012 Rise Set
Actual Time 7:51 AM AKDT 6:17 PM AKDT
Civil Twilight 7:09 AM AKDT 6:58 PM AKDT
Nautical Twilight 6:22 AM AKDT 7:45 PM AKDT
Astronomical Twilight 5:34 AM AKDT 8:33 PM AKDT
Moon 4:06 AM AKDT (10/12) 4:59 PM AKDT (10/12)
Length of Visible Light 11h 48m
Length of Day
10h 25m
Waning Crescent, 10% of the Moon is Illuminated
Oct 12
Waning Crescent
Oct 15
New
Oct 21
First Quarter
Oct 29
Full
Nov 6
Last Quarter

Hourly Weather History & Observations

Time (AKDT) Temp. Windchill Dew Point Humidity Pressure Visibility Wind Dir Wind Speed Gust Speed Precip Events Conditions
12:53 AM 37.0 °F - 33.1 °F 86% 29.45 in 10.0 mi Calm Calm - N/A   Overcast
1:53 AM 35.1 °F - 32.0 °F 89% 29.42 in 10.0 mi Calm Calm - N/A   Scattered Clouds
2:53 AM 30.9 °F - 28.9 °F 92% 29.39 in 10.0 mi Calm Calm - N/A   Clear
3:53 AM 30.0 °F - 28.9 °F 96% 29.36 in 10.0 mi Calm Calm - N/A   Clear
4:53 AM 28.9 °F - 27.0 °F 92% 29.34 in 10.0 mi Calm Calm - N/A   Clear
5:53 AM 28.0 °F 24.2 °F 27.0 °F 96% 29.31 in 10.0 mi WSW 3.5 mph - N/A   Clear
6:53 AM 28.0 °F - 27.0 °F 96% 29.29 in 10.0 mi Calm Calm - N/A   Clear
7:53 AM 27.0 °F - 26.1 °F 96% 29.28 in 10.0 mi Calm Calm - N/A   Clear
9:53 AM 34.0 °F - 30.9 °F 89% 29.25 in 10.0 mi Calm Calm - N/A   Scattered Clouds
10:53 AM 41.0 °F - 32.0 °F 70% 29.24 in 10.0 mi Calm Calm - N/A   Scattered Clouds
11:53 AM 46.9 °F - 32.0 °F 56% 29.23 in 10.0 mi Calm Calm - N/A   Scattered Clouds
12:53 PM 46.9 °F - 28.0 °F 48% 29.23 in 10.0 mi WSW 3.5 mph - N/A   Scattered Clouds
1:53 PM 46.9 °F - 30.0 °F 52% 29.22 in 10.0 mi Calm Calm - N/A   Scattered Clouds
2:53 PM 48.0 °F - 28.9 °F 48% 29.21 in 10.0 mi Calm Calm - N/A   Scattered Clouds
3:53 PM 46.9 °F - 33.1 °F 59% 29.20 in 10.0 mi SW 3.5 mph - N/A   Scattered Clouds
4:53 PM 46.0 °F - 34.0 °F 63% 29.20 in 10.0 mi Calm Calm - N/A   Mostly Cloudy
5:53 PM 44.1 °F - 37.0 °F 76% 29.19 in 10.0 mi Calm Calm - N/A   Overcast
6:53 PM 43.0 °F 40.3 °F 32.0 °F 65% 29.20 in 10.0 mi SE 4.6 mph - N/A   Overcast
7:53 PM 41.0 °F 37.1 °F 34.0 °F 76% 29.21 in 10.0 mi ENE 5.8 mph - 0.00 in Rain Light Rain
8:53 PM 39.0 °F 34.8 °F 35.1 °F 86% 29.20 in 9.0 mi East 5.8 mph - 0.02 in Rain Light Rain
9:53 PM 37.9 °F 33.5 °F 35.1 °F 89% 29.18 in 9.0 mi NE 5.8 mph - 0.03 in Rain Light Rain
10:53 PM 37.9 °F 34.4 °F 37.0 °F 97% 29.17 in 10.0 mi NE 4.6 mph - 0.05 in Rain Light Rain
11:31 PM 37.4 °F 33.8 °F 37.4 °F 100% 29.16 in 10.0 mi East 4.6 mph - 0.02 in Rain Light Rain
11:53 PM 39.0 °F 36.8 °F 37.9 °F 96% 29.16 in 10.0 mi East 3.5 mph - 0.03 in Rain Light Rain